Overview Statistics Trail Chart Weather Telemetry Raw packets
 

This is the latest recevied weather packets stored in our database for station/object 4S6DRJ-13. If no packets are shown the sender has not sent any weather packets the latest 10 day(s).

<< 546 547 548 549 550 551 552 >>
Time Temp. Humidity Pressure Rain* Wind** Luminosity Snow
1787608312 25.56° C 92% 1009.4 hPa 0.76 mm 1.34 m/s, 172° 0 W/m² -
1787608251 25.56° C 92% 1009.6 hPa 0.76 mm 0.89 m/s, 202° 0 W/m² -
1787608190 25.56° C 92% 1009.4 hPa 0.76 mm 0.89 m/s, 236° 0 W/m² -
1787608129 25.56° C 92% 1009.5 hPa 0.76 mm 1.34 m/s, 273° 0 W/m² -
1787608068 25.56° C 91% 1009.6 hPa 0.76 mm 1.79 m/s, 210° 0 W/m² -
1787608007 25.56° C 91% 1009.7 hPa 0.76 mm 1.79 m/s, 232° 0 W/m² -
1787607945 25.56° C 92% 1009.7 hPa 0.76 mm 1.34 m/s, 195° 0 W/m² -
1787607885 25.56° C 91% 1009.6 hPa 0.76 mm 0 m/s 0 W/m² -
1787607824 25.56° C 91% 1009.8 hPa 0.76 mm 0.89 m/s, 221° 0 W/m² -
1787607762 25.56° C 91% 1009.6 hPa 0.76 mm 0.89 m/s, 231° 0 W/m² -
1787607702 25.56° C 91% 1009.6 hPa 0.76 mm 0.89 m/s, 247° 0 W/m² -
1787607641 25.56° C 91% 1009.6 hPa 0.76 mm 0.89 m/s, 207° 0 W/m² -
1787607580 25.56° C 91% 1009.7 hPa 0.76 mm 0.45 m/s, 215° 0 W/m² -
1787607519 25.56° C 91% 1009.8 hPa 0.76 mm 0 m/s 0 W/m² -
1787607458 25.56° C 91% 1009.7 hPa 0.76 mm 0.89 m/s, 167° 0 W/m² -
1787607397 25.56° C 91% 1009.7 hPa 0.76 mm 1.34 m/s, 220° 0 W/m² -
1787607336 25.56° C 91% 1009.7 hPa 0.76 mm 0 m/s 0 W/m² -
1787607274 25.56° C 91% 1009.9 hPa 0.76 mm 1.34 m/s, 201° 0 W/m² -
1787607213 25.56° C 91% 1009.9 hPa 0.76 mm 1.79 m/s, 265° 0 W/m² -
1787607152 25.56° C 91% 1009.7 hPa 0.76 mm 0.89 m/s, 266° 0 W/m² -
1787607091 25.56° C 91% 1009.4 hPa 0.76 mm 3.13 m/s, 304° 0 W/m² -
1787607030 25.56° C 91% 1009.4 hPa 0.76 mm 2.24 m/s, 177° 0 W/m² -
1787606969 25.56° C 91% 1009.5 hPa 0.76 mm 1.79 m/s, 140° 0 W/m² -
1787606908 25.56° C 90% 1009.6 hPa 0.76 mm 1.79 m/s, 177° 0 W/m² -
1787606847 25.56° C 90% 1009.2 hPa 0.76 mm 0.45 m/s, 153° 0 W/m² -

* Rain latest hour (hover to see other rain measurements)
** Current wind speed in m/s (hover to see current wind gust speed)